Omaha Offutt, NE

9:31 AM CDT on April 23, 2017 (GMT -0500)
Offutt Air Force Base

Weather History for KOFF - October, 2012

Change the Weather History Date:

Wednesday, October 3, 2012

  Actual Average Record
Temperature  
Mean Temperature 58 °F -  
Max Temperature 81 °F 69 °F 91 °F (1997)
Min Temperature 35 °F 46 °F 34 °F (2010)
Degree Days  
Heating Degree Days 7    
Growing Degree Days 8 (Base 50)    
Moisture  
Dew Point 37 °F    
Average Humidity 53    
Maximum Humidity 97    
Minimum Humidity 19    
Precipitation  
Precipitation 0.00 in - - ()
Sea Level Pressure  
Sea Level Pressure 29.86 in    
Wind  
Wind Speed 5 mph (SSE)    
Max Wind Speed 20 mph    
Max Gust Speed 25 mph    
Visibility 10 miles    
Events      
Averages and records for this station are not official NWS values.
T = Trace of Precipitation, MM = Missing Value Source: NWS Daily Summary

Daily Weather History Graph

Daily Weather History Graph

Search for Another Location

Airport or City:

Trip Planner

Search our weather history database for the weather conditions in past years. The results will help you decide how hot, cold, wet, or windy it might be!

Date:

Astronomy

Oct. 03, 2012 Rise Set
Actual Time 7:22 AM CDT 7:01 PM CDT
Civil Twilight 6:55 AM CDT 7:28 PM CDT
Nautical Twilight 6:23 AM CDT 8:00 PM CDT
Astronomical Twilight 5:51 AM CDT 8:32 PM CDT
Moon 8:52 PM CDT (10/3) 10:49 AM CDT (10/3)
Length of Visible Light 12h 33m
Length of Day
11h 38m
Waning Gibbous, 88% of the Moon is Illuminated
Oct 3
Waning Gibbous
Oct 8
Last Quarter
Oct 15
New
Oct 21
First Quarter
Oct 29
Full

Hourly Weather History & Observations

Time (CDT) Temp. Dew Point Humidity Pressure Visibility Wind Dir Wind Speed Gust Speed Precip Events Conditions
12:55 AM 40.3 °F 36.9 °F 88% 29.89 in 10.0 mi Calm Calm - N/A   Clear
1:55 AM 40.5 °F 37.9 °F 91% 29.90 in 10.0 mi Calm Calm - N/A   Clear
2:55 AM 37.6 °F 35.4 °F 92% 29.89 in 10.0 mi Calm Calm - N/A   Clear
3:55 AM 37.4 °F 36.0 °F 95% 29.89 in 10.0 mi Calm Calm - N/A   Clear
4:55 AM 38.7 °F 36.7 °F 93% 29.90 in 10.0 mi Calm Calm - N/A   Clear
5:55 AM 36.0 °F 34.5 °F 94% 29.91 in 10.0 mi Calm Calm - N/A   Clear
6:55 AM 35.2 °F 34.5 °F 97% 29.91 in 10.0 mi Calm Calm - N/A   Clear
7:55 AM 36.9 °F 36.1 °F 97% 29.93 in 10.0 mi Calm Calm - N/A   Clear
8:55 AM 50.9 °F 41.2 °F 69% 29.92 in 10.0 mi SSE 8.1 mph - N/A   Clear
9:55 AM 58.6 °F 40.5 °F 51% 29.91 in 10.0 mi SE 9.2 mph - N/A   Clear
10:55 AM 67.6 °F 40.6 °F 37% 29.89 in 10.0 mi SSE 9.2 mph - N/A   Clear
11:55 AM 72.7 °F 39.2 °F 30% 29.86 in 10.0 mi South 13.8 mph - N/A   Clear
12:55 PM 77.0 °F 39.2 °F 26% 29.84 in 10.0 mi South 19.6 mph 24.2 mph N/A   Clear
1:55 PM 79.3 °F 34.2 °F 20% 29.80 in 10.0 mi South 17.3 mph 25.3 mph N/A   Clear
2:55 PM 80.4 °F 35.1 °F 19% 29.79 in 10.0 mi South 17.3 mph 25.3 mph N/A   Clear
3:55 PM 81.0 °F 34.7 °F 19% 29.78 in 10.0 mi South 17.3 mph 21.9 mph N/A   Clear
4:55 PM 80.4 °F 34.3 °F 19% 29.77 in 10.0 mi SSE 12.7 mph - N/A   Clear
5:55 PM 79.2 °F 33.4 °F 19% 29.78 in 10.0 mi SSE 15.0 mph 24.2 mph N/A   Clear
6:55 PM 73.8 °F 37.2 °F 27% 29.81 in 10.0 mi SSE 9.2 mph - N/A   Scattered Clouds
7:55 PM 69.1 °F 39.2 °F 34% 29.83 in 9.0 mi SE 6.9 mph - N/A   Scattered Clouds
8:55 PM 66.6 °F 39.6 °F 37% 29.83 in 10.0 mi SE 9.2 mph - N/A   Clear
9:55 PM 67.3 °F 39.7 °F 36% 29.84 in 10.0 mi SE 10.4 mph - N/A   Clear
10:55 PM 65.3 °F 40.8 °F 41% 29.86 in 10.0 mi SSE 9.2 mph - N/A   Clear
11:55 PM 63.7 °F 41.9 °F 45% 29.89 in 10.0 mi West 16.1 mph - N/A   Clear